Regional Weather Roundup
Issued by NWS

Home | Current Version | Previous Version | Text Only | Print | Product List | Glossary Off
Versions: 1 2 3 4 5 6 7 8 9 10 11 12 13 14 15 16 17 18 19 20 21 22 23 24 25 26 27 28 29 30 31 32 33 34 35 36 37 38 39 40 41 42 43 44 45 46 47 48 49 50

000
ASUS43 KOAX 162010
RWRNE

WEATHER ROUNDUP FOR NEBRASKA
NATIONAL WEATHER SERVICE OMAHA NE
300 PM CDT MON OCT 16 2017

NOTES: SATELLITE DATA IS BEING USED TO AUGMENT CLOUD COVER ABOVE
       12000 FEET.
       "FAIR" INDICATES FEW OR NO CLOUDS BELOW 12,000 FEET WITH NO
       SIGNIFICANT WEATHER AND/OR OBSTRUCTIONS TO VISIBILITY.


NEZ001>004-019>022-054>056-162100-
NEBRASKA PANHANDLE

CITY           SKY/WX    TMP DP  RH WIND       PRES   REMARKS
SCOTTSBLUFF    SUNNY     77  17  10 NW14      30.13F
ALLIANCE       SUNNY     73  19  13 MISG      30.11F
CHADRON        SUNNY     70  22  16 NW13      30.09F
GORDON         FAIR      74  23  15 NW16      30.08F
KIMBALL        SUNNY     76  13   9 NW20G26   30.19F
SIDNEY         CLOUDY    78  12   8 NW18G31   30.16F
$$

NEZ057>060-069>072-079>082-162100-
SOUTHWEST NEBRASKA

CITY           SKY/WX    TMP DP  RH WIND       PRES   REMARKS
NORTH PLATTE   SUNNY     78  30  17 SW18G29   30.09F
IMPERIAL       SUNNY     81  20  10 SW8G17    30.11F
LEXINGTON      SUNNY     77  32  19 S22G30    30.11F
MCCOOK         SUNNY     80  28  15 SW22      30.11F
OGALLALA       SUNNY     77  28  16 W7        30.11F
$$

NEZ005>010-023>029-035>040-094-162100-
NORTH CENTRAL NEBRASKA

CITY           SKY/WX    TMP DP  RH WIND       PRES   REMARKS
VALENTINE      SUNNY     79  24  13 W12G21    30.05F
AINSWORTH      SUNNY     76  31  19 W15       30.05F
BROKEN BOW     CLOUDY    75  35  23 SW23      30.10F
O`NEILL        SUNNY     75  37  25 SW15G24   30.06F
ORD            SUNNY     75  28  17 SW21G28   30.08
THEDFORD       SUNNY     78  30  17 W12       30.08F
$$

NEZ041-046>049-061>064-073>077-083>087-162100-
SOUTH CENTRAL NEBRASKA

CITY           SKY/WX    TMP DP  RH WIND       PRES   REMARKS
GRAND ISLAND   SUNNY     73  36  25 SW18G26   30.14F
AURORA         SUNNY     73  34  24 SW18G28   30.15F
HASTINGS       SUNNY     73  33  23 SW14G22   30.16F
HEBRON         SUNNY     74  35  24 SW16G24   30.20F
KEARNEY        SUNNY     75  35  23 S25G31    30.13F
YORK           SUNNY     73  36  25 S17G28    30.16F
$$

NEZ011>018-030>034-042>045-162100-
NORTHEAST NEBRASKA

CITY           SKY/WX    TMP DP  RH WIND       PRES   REMARKS
NORFOLK        SUNNY     75  36  24 SW16G25   30.09F
ALBION         SUNNY     75  37  24 SW17G25   30.11F
BLAIR          SUNNY     73  37  26 S21G26    30.16F
COLUMBUS       SUNNY     75  36  24 S16G24    30.13F
FREMONT        SUNNY     72  38  28 SW15G22   30.16F
TEKAMAH        SUNNY     73  35  25 S17G23    30.14F
WAYNE          SUNNY     73  30  20 SW17G24   30.09F
$$

NEZ050>053-065>068-078-088>093-162100-
SOUTHEAST NEBRASKA

CITY           SKY/WX    TMP DP  RH WIND       PRES   REMARKS
LINCOLN        SUNNY     74  34  23 SW17G26   30.18F
OMAHA EPPLEY   MOSUNNY   73  34  23 S18G26    30.16F
BEATRICE       SUNNY     72  40  30 S17       30.20F
FALLS CITY     SUNNY     71  39  31 SW16G24   30.23F
NEBRASKA CITY  SUNNY     72  38  30 SW18G25   30.21F
PLATTSMOUTH    SUNNY     73  37  26 S17       30.19F
$$

NEZ044-045-051>053-067-162100-
OMAHA AREA

CITY           SKY/WX    TMP DP  RH WIND       PRES   REMARKS
OMAHA EPPLEY   MOSUNNY   73  34  23 S18G26    30.16F
BLAIR          SUNNY     73  37  26 S21G26    30.16F
FREMONT        SUNNY     72  38  28 SW15G22   30.16F
MILLARD        SUNNY     73  39  29 S10G18    30.17F
OFFUTT AFB     SUNNY     73  35  25 S16G22    30.17F
PLATTSMOUTH    SUNNY     73  37  26 S17       30.19F
WAHOO          FAIR      74  35  24 S20G28    30.16F
$$




USA.gov is the U.S. government's official web portal to all federal, state and local government web resources and services.